Regional Weather Roundup
Issued by NWS Upton, NY

Current Version | Previous Version | Graphics & Text | Print | Product List | Glossary Off
Versions: 1 2 3 4 5 6 7 8 9 10 11 12 13 14 15 16 17 18 19 20 21 22 23 24 25 26 27 28 29 30 31 32 33 34 35 36 37 38 39 40 41 42 43 44 45 46 47 48 49 50
114 ASUS41 KOKX 290409 RWROKX REGIONAL WEATHER ROUNDUP NATIONAL WEATHER SERVICE NEW YORK NY 1200 AM EDT MON MAY 29 2017 NOTE: "FAIR" INDICATES FEW OR NO CLOUDS BELOW 12,000 FEET WITH NO SIGNIFICANT WEATHER AND/OR OBSTRUCTIONS TO VISIBILITY. NYZ071-072-176-178-NJZ106-104-290500- NEW YORK CITY METRO AREA CITY SKY/WX TMP DP RH WIND PRES REMARKS Central Park CLOUDY 61 51 70 VRB6 29.94F Wall St Helipt CLOUDY 61 53 75 NE10 29.92F Bronx Bot Gard N/A 59 50 72 CALM 29.92F LaGuardia APRT CLOUDY 62 51 67 E12 29.91F Kennedy INTL CLOUDY 60 55 83 E10 29.92F Breezy Point N/A 57 N/A N/A E12 N/A Newark/Liberty CLOUDY 61 52 72 E9 29.91F Teterboro CLOUDY 62 51 67 SE7 29.91F $$ NYZ177-179-078>081-290500- LONG ISLAND NEW YORK CITY SKY/WX TMP DP RH WIND PRES REMARKS Jones Beach N/A 57 N/A N/A E9 N/A Matinecock PT N/A 59 N/A N/A E7 N/A Farmingdale CLOUDY 59 51 75 E9 29.93F MacArthur/ISP CLOUDY 58 53 84 SE12 29.93F Shirley CLOUDY 57 54 89 VRB6 29.94F Mt Sinai Harb N/A N/A N/A N/A E2 N/A Westhampton CLOUDY 57 52 83 E6 29.96F East Hampton CLOUDY 55 52 89 E7 29.96S Montauk N/A 55 54 96 VRB3 29.98F $$ NYZ052-065-067-290500- HUDSON VALLEY CITY SKY/WX TMP DP RH WIND PRES REMARKS White Plains CLOUDY 57 50 77 E7 29.92F Larchmont Harb N/A 59 N/A N/A E10 N/A Croton O-T Hud N/A 59 N/A N/A MISG N/A Newburgh MOCLDY 59 52 77 E7 29.94F Montgomery CLOUDY 57 51 80 NE3 29.91F Poughkeepsie CLOUDY 59 48 67 VRB3 29.92F Albany MOCLDY 62 48 60 SE12 29.90F $$ NJZ001-105-106-008-010-013-015-019>022-104-290500- NEW JERSEY CITY SKY/WX TMP DP RH WIND PRES REMARKS Newark/Liberty CLOUDY 61 52 72 E9 29.91F Teterboro CLOUDY 62 51 67 SE7 29.91F Caldwell CLOUDY 63 51 65 VRB3 29.92F Somerville LGT RAIN 58 56 93 NE3 29.89F Linden DRIZZLE 59 54 83 SE7 29.91F Perth Amboy N/A 57 N/A N/A E14 N/A Sussex CLOUDY 60 51 72 CALM 29.92S Andover N/A 58 51 78 CALM 29.91S Trenton LGT RAIN 58 56 93 E7 29.88F Millville LGT RAIN 60 60 100 E8 29.84F Atlantic City RAIN 60 32 34 E10 29.86 Wrightstown LGT RAIN 59 55 88 E7 29.85F Toms River LGT RAIN 58 57 97 E3 29.89S Belmar LGT RAIN 58 55 90 E9 29.90F $$ PAZ047>061-062-071-290500- EASTERN PENNSYLVANIA CITY SKY/WX TMP DP RH WIND PRES REMARKS Philadelphia LGT RAIN 60 57 89 NE8 29.87F Allentown CLOUDY 60 54 80 E8 29.89S Scranton LGT RAIN 61 55 81 CALM 29.86F $$ CTZ002-004>006-009-010-012-RIZ004-006-007-MAZ004-011-015-290500- SOUTHERN NEW ENGLAND IN CT CITY SKY/WX TMP DP RH WIND PRES REMARKS Bradley INTL CLOUDY 56 49 77 S7 29.96F Hartford CLOUDY 57 50 77 CALM 29.96F Danbury CLOUDY 54 50 86 E6 29.95F Wtrbury/Oxford N/A 54 46 76 SE6 29.96F Bridgeport CLOUDY 59 54 83 E13 29.94F Meriden MOCLDY 55 51 86 CALM 29.96F New Haven CLOUDY 56 52 86 E5 29.95F Chester CLOUDY 54 52 94 VRB3 29.97F Groton MOCLDY 55 51 86 E6 29.97F Wilimantic CLOUDY 56 51 84 CALM 29.98F IN RI CITY SKY/WX TMP DP RH WIND PRES REMARKS Providence MOCLDY 52 51 97 SE5 29.99F Block Island CLOUDY 54 52 93 SE9 29.98F Westerly CLOUDY 54 52 93 CALM 29.99S IN MA CITY SKY/WX TMP DP RH WIND PRES REMARKS Boston MOCLDY 56 48 74 S9 29.99F Worcester MOCLDY 53 45 74 SW6 29.98S Westfield CLOUDY 55 50 83 S3 29.96F Provincetown CLOUDY 52 48 86 S6 30.02S Nantucket CLOUDY 49 46 90 SE12 30.00F $$ ANZ330-335-338-340-345-350-353-355-290500- COASTAL MARINE OBSERVATIONS STATION/POSITION TIME SKY/WX TEMP WIND PRES VSBY WAVE AIR SEA DIR/SP/G HT/PER (UTC) (F) (DEG/KT/KT) (MB) (MI) (FT/S) NY HARB ENTRANCE 0250 58 59 100/ 14/ 16 1012.7 3/ 4 20 S FIRE ISLAND 0350 58 57 100/ 16/ 17 1011.6 4/ 5 GREAT SOUTH BAY 0330 59 65 110/ 12/ 16 N/A 23 SSW MONTAUK P 0250 56 56 1014.3 3/ 4 15 E BARNEGAT LI 0330 60 N/A 4/ 6 HUDSON CANYON 0250 58 54 110/ 17/ 19 1011.8 5/ 5 KINGS POINT 0348 60 60 180/ 2/ 4 1013.1 EXECUTION ROCKS 0345 60 N/A CENTRAL LI SOUND NOT AVBL EASTERN LI SOUND NOT AVBL ROBBINS REEF 0348 61 120/ 14/ 18 1013.3 $$ >>>>>>>>>>>>>>>>>>>>>>>>>>>> KEY <<<<<<<<<<<<<<<<<<<<<<<<<<< > < > SKY/WX - Sky Condition/Present Weather < > TMP - Temperature in Fahrenheit < > DP - Dew Point in Fahrenheit < > RH - Relative Humidity in Percent < > WIND - Direction (from) and Speed in MPH < > PRES - Mean Sea Level Pressure (inches of Hg) < > WCI - Wind Chill Index < > VSB - VISIBILITY IN MILES < > HX - HEAT INDEX < > TC - TEMPERATURE IN CELSIUS < > VRB - VARIABLE WIND DIRECTION < > < >>>>>>>>>>>>>>>>>>>>>>>>>>>> KEY <<<<<<<<<<<<<<<<<<<<<<<<<<<

USA.gov is the U.S. government's official web portal to all federal, state and local government web resources and services.